Location: Unspecified
(0.0000°N, 0.0000°E)
Time: 02:35:09
(UTC+00:00)

Hubble Space Telescope - Pass Details

Date: 22 September 2017
Orbit: 538 x 541 km, 28.5° (Epoch: 24 September)

Event Time Altitude Azimuth Distance (km) Brightness Sun altitude
Rises 19:11:12 0° 264° (W) 2,672 5.9 -19.7°
Reaches altitude 10° 19:14:36 10° 235° (SW) 1,784 4.2 -20.5°
Maximum altitude 19:16:28 13° 207° (SSW) 1,614 3.5 -21.0°
Drops below altitude 10° 19:18:22 10° 180° (S) 1,786 3.4 -21.5°
Enters shadow 19:18:59 - 173° (S) 1,908 3.5 -21.6°
